Weather observations for the past three days for
Wink, Winkler County Airport
Metric (Imperial)
Date Time (cdt) Wind (kph) Vis. (km) Weather Sky Cond. Temperature (ºC) Relative Humidity Wind Chill (°C) Heat Index (°C) Pressure Precipitation (cm)
Air Dwpt 6 hour altimeter (cm) sea level (mb) 1 hr 3 hr 6 hr
Max. Min.
24 22:53 SE 13 16.09 Fair CLR 26.1 -14.4 6% 25 75.69 1004.0
24 20:53 SW 9 16.09 Fair CLR 31.7 -16.1 4% 30 75.64 1003.1
24 19:53 W 7 16.09 Fair CLR 35 -16.1 3% 32 75.59 1002.9
24 18:53 SW 11 16.09 Fair CLR 35 -17.2 36.1 32.2 3% 32 75.62 1003.1
24 17:53 Vrbl 11 G 26 16.09 Fair CLR 35.6 -16.1 3% 33 75.62 1003.2
24 16:53 Calm 16.09 Fair CLR 34.4 -15 3% 32 75.64 1003.6
24 15:53 W 15 16.09 Fair CLR 35.6 -14.4 3% 33 75.72 1004.5
24 14:53 SW 11 16.09 Fair CLR 34.4 -14.4 4% 32 75.77 1005.2
24 13:53 N 13 16.09 Fair CLR 33.9 -13.9 4% 31 75.82 1005.5
24 12:53 Calm 16.09 Fair CLR 32.2 -13.9 33.9 17.2 4% 30 75.84 1006.1
24 11:53 Calm 16.09 Fair CLR 32.2 -12.8 5% 30 75.87 1006.1
24 10:53 NW 22 G 31 16.09 Fair CLR 32.2 -13.3 4% 30 75.87 1006.2
24 09:53 W 22 16.09 Fair CLR 28.9 -13.3 5% 27 75.84 1005.8
24 08:53 W 19 16.09 Fair CLR 25.6 -13.9 6% 25 75.82 1005.4
24 07:53 NW 9 16.09 Fair CLR 20.6 -15 8% 75.77 1005.1
24 06:53 NW 11 16.09 Fair CLR 20 -17.2 24.4 17.8 7% 75.72 1004.6
24 05:53 W 15 16.09 Fair CLR 19.4 -17.2 7% 75.67 1003.8
24 04:53 W 17 16.09 Fair CLR 21.1 -17.8 6% 75.67 1003.5
24 03:53 W 19 16.09 Fair CLR 21.1 -17.8 6% 75.64 1003.2
24 02:53 W 15 16.09 Fair CLR 21.7 -17.2 6% 75.64 1003.1
24 01:53 W 19 16.09 Fair CLR 23.3 -17.8 5% 75.59 1002.7
24 00:53 W 15 16.09 Fair CLR 23.3 -17.2 36.7 23.3 5% 75.59 1002.6
23 23:53 W 13 16.09 Fair CLR 27.8 -17.8 4% 26 75.59 1002.2
23 22:53 W 17 16.09 Fair CLR 28.9 -18.3 4% 27 75.57 1002.2
23 21:53 W 19 16.09 Fair CLR 30 -17.8 3% 28 75.54 1002.0
23 20:53 W 22 16.09 Fair CLR 32.8 -17.8 3% 31 75.49 1001.5
23 19:53 W 24 16.09 Fair CLR 35.6 -18.3 2% 33 75.44 1000.9
23 18:53 W 43 G 56 16.09 Fair and Windy CLR 36.7 -16.7 37.8 33.9 3% 34 75.44 1000.7
23 17:53 W 28 G 43 16.09 Fair CLR 36.7 -17.8 2% 34 75.44 1000.8
23 16:53 W 35 G 44 16.09 Fair and Breezy CLR 36.7 -16.7 3% 34 75.49 1001.5
23 15:53 W 37 G 57 16.09 Fair and Breezy CLR 36.7 -14.4 3% 34 75.57 1002.2
23 14:53 SW 31 G 57 16.09 Fair CLR 36.1 -15 3% 33 75.64 1003.1
23 13:53 SW 28 G 48 16.09 Fair CLR 35 -14.4 3% 32 75.69 1004.0
23 12:53 W 20 G 44 16.09 Fair CLR 34.4 -11.1 34.4 17.2 5% 32 75.74 1004.5
23 10:53 W 17 16.09 Fair CLR 29.4 7.2 25% 28 75.82 1005.8
23 09:53 SW 7 16.09 Fair CLR 25.6 10.6 39% 26 75.84 1006.3
23 07:53 Calm 16.09 Fair CLR 18.9 15 78% 75.82 1005.8
23 06:53 N 9 16.09 Fair CLR 17.2 15 25 17.2 87% 75.79 1005.5
23 05:53 SE 13 16.09 Fair CLR 19.4 16.1 81% 75.77 1005.2
23 04:53 SE 9 16.09 Fair CLR 20 16.1 78% 75.77 1005.1
23 03:53 Calm 16.09 Fair CLR 21.7 16.7 73% 75.77 1005.0
23 02:53 SE 19 16.09 Fair CLR 22.8 17.8 74% 75.74 1005.0
23 01:53 SE 20 16.09 Fair CLR 23.9 18.9 74% 25 75.77 1005.4
23 00:53 SE 22 16.09 Fair CLR 25 18.3 35.6 25 66% 26 75.79 1005.4
22 23:53 SE 26 16.09 Fair CLR 26.1 18.3 62% 27 75.79 1005.6
22 22:53 E 24 16.09 Fair CLR 27.2 16.1 51% 28 75.74 1005.0
22 21:53 E 13 16.09 Fair CLR 28.3 0.6 17% 27 75.67 1003.9
22 20:53 NE 11 16.09 Fair CLR 31.1 -0.6 13% 29 75.62 1003.4
22 19:53 N 6 16.09 Fair CLR 34.4 -0.6 11% 32 75.62 1003.0
22 18:53 NW 19 16.09 Fair CLR 35.6 -1.7 35.6 30 9% 33 75.62 1003.1
22 17:53 NW 11 16.09 Fair CLR 35 -0.6 10% 32 75.62 1003.3
22 16:53 NW 28 G 39 16.09 Fair CLR 35 0 11% 32 75.67 1003.8
22 15:53 Vrbl 11 16.09 Fair CLR 33.9 4.4 16% 32 75.74 1005.0
22 14:53 N 13 G 30 16.09 Fair CLR 32.2 8.3 23% 30 75.84 1006.4
22 13:53 N 17 G 30 16.09 Fair CLR 30.6 10 28% 29 75.92 1007.4
22 12:53 N 22 16.09 Fair CLR 30 11.7 30 18.3 32% 29 75.95 1007.9
22 11:53 N 26 16.09 A Few Clouds FEW015 28.3 11.7 36% 28 75.95 1007.7
22 09:53 N 24 16.09 Fair CLR 25 4.4 26% 25 75.9 1007.0
22 08:53 Calm 16.09 Fair CLR 23.3 5 31% 75.87 1006.5
22 07:53 Calm 16.09 Fair CLR 21.1 3.3 31% 75.82 1005.9
22 06:53 E 11 16.09 Fair CLR 18.3 0.6 22.2 17.8 31% 75.77 1005.5
22 05:53 E 7 16.09 Fair CLR 18.9 0 28% 75.74 1005.1
22 04:53 Calm 16.09 Fair CLR 21.1 0.6 26% 75.74 1004.9
22 03:53 SE 13 16.09 Fair CLR 20.6 -0.6 24% 75.74 1005.0
22 02:53 SE 9 16.09 Fair CLR 21.1 -1.1 23% 75.77 1005.4
22 01:53 SE 7 16.09 Fair CLR 21.1 -1.7 22% 75.79 1005.7
22 00:53 E 9 16.09 Fair CLR 21.7 -2.2 33.9 21.7 20% 75.77 1005.4
21 23:53 SE 6 16.09 Fair CLR 24.4 -2.8 16% 24 75.77 1005.1
Date Time (cdt) Wind (kph) Vis. (km) Weather Sky Cond. Air Dwpt Max. Min. Relative Humidity Wind Chill (°C) Heat Index (°C) altimeter (cm) sea level (mb) 1 hr 3 hr 6 hr
6 hour
Temperature (ºC) Pressure Precipitation (cm)